Wind_Speed
35 43 35 27 23 21 21 24 21 16 7 17 28 19 22 27 34 30 32 19 25 31 30 29 23 26 25 25 26 25 23 24 26 27 26 26 25 21 21 19 22 23 21 16
41 39 33 28 29 25 25 25 21 19 12 16 22 24 26 30 36 34 29 24 20 19 22 23 23 21 22 23 25 21 22 23 24 25 25 26 26 21 20 20 21 22 19 15
43 34 34 33 33 32 27 27 17 23 17 25 32 37 35 28 26 24 20 25 21 21 27 23 22 20 20 23 24 21 21 22 22 24 23 22 22 19 22 19 16 19 15 16
47 40 39 38 37 33 31 22 22 22 15 21 23 27 24 19 20 13 16 27 30 27 30 22 20 19 21 23 21 19 20 19 21 21 19 20 21 22 22 14 13 17 20 17
34 31 36 39 33 30 26 22 20 11 13 22 27 28 15 20 14 15 19 27 32 31 21 19 18 17 20 19 16 16 18 16 18 18 16 18 21 21 14 13 15 19 20 13
32 27 35 33 28 28 22 21 15 13 22 31 25 25 9 9 14 21 26 27 31 20 16 16 15 18 20 15 16 15 15 15 16 14 14 17 17 14 13 14 19 20 15 11
32 30 27 29 33 29 16 16 22 26 34 17 16 20 8 7 12 20 25 25 22 15 17 17 16 17 16 15 13 14 14 14 15 10 12 15 14 13 15 18 24 14 13 9
33 35 32 28 30 30 25 31 31 32 28 10 4 13 5 13 16 20 20 18 20 15 16 17 16 16 14 15 11 12 14 15 13 8 11 12 15 14 19 21 19 17 14 10
37 31 26 29 28 30 30 36 24 29 27 17 8 11 17 19 21 20 22 23 24 17 18 16 17 12 11 10 9 12 13 10 10 7 9 12 14 16 18 20 19 14 15 12
37 34 26 26 27 31 35 30 36 33 32 24 18 20 18 24 21 23 20 22 21 13 18 13 13 8 12 7 9 12 10 10 9 6 10 11 13 14 17 20 17 17 14 13
38 37 31 29 34 34 36 38 40 33 26 23 17 14 12 23 22 22 24 25 24 16 16 13 11 9 5 5 10 11 9 10 10 8 8 9 11 13 20 20 20 19 16 17
44 42 40 36 30 28 33 40 37 34 26 22 18 14 15 18 22 24 21 22 20 9 10 8 6 9 4 6 11 11 10 9 11 13 11 10 10 12 17 22 16 18 20 20
42 46 43 39 37 34 36 34 32 35 24 22 21 19 23 23 26 23 19 20 18 6 7 3 6 7 2 6 10 10 11 11 8 13 12 12 14 14 17 21 20 21 21 23
39 45 51 48 42 40 44 37 34 35 29 26 24 16 25 22 24 21 19 19 12 7 6 2 4 7 1 5 10 10 10 12 9 9 12 10 13 15 17 17 20 16 16 16
40 46 50 47 41 39 41 37 35 31 32 32 20 20 25 23 23 29 27 19 4 5 7 2 0 6 2 4 9 11 11 10 8 8 8 10 11 14 14 16 18 18 17 17
53 45 51 52 48 45 46 41 37 31 33 32 23 23 24 19 23 30 27 21 4 7 9 4 4 3 1 4 7 10 11 11 9 9 9 11 12 13 14 15 17 20 21 22
57 47 53 56 49 45 40 48 38 33 32 31 28 21 23 28 29 28 27 23 16 5 7 5 6 2 1 3 6 8 9 11 11 9 10 10 11 13 16 17 19 21 21 17
58 53 50 55 51 56 51 31 36 36 30 28 30 22 19 20 23 25 26 23 19 7 8 7 7 5 2 3 4 7 8 10 11 9 9 10 12 16 19 19 20 21 22 23
59 58 53 54 59 57 50 46 43 40 33 32 30 26 22 18 26 26 25 22 19 8 8 7 7 7 6 2 3 6 9 8 9 8 8 10 13 15 17 17 16 16 16 18
57 60 57 58 58 61 51 41 23 29 36 36 33 30 27 29 27 26 25 23 19 17 10 8 8 14 7 6 2 4 8 10 10 10 8 9 11 13 14 15 16 18 17 16
58 61 54 58 59 56 51 49 28 35 46 39 38 32 29 30 25 21 21 23 22 20 12 10 9 14 11 8 6 4 7 10 11 11 11 9 10 9 10 11 12 12 13 13
61 61 59 54 55 55 44 39 41 37 37 37 37 33 27 25 24 23 24 28 28 19 9 13 15 17 15 12 9 7 6 8 11 12 11 10 10 9 7 5 4 6 9 11
58 64 64 57 50 55 51 43 34 32 39 40 40 38 36 29 29 23 29 31 30 21 13 18 18 19 14 15 13 10 7 9 11 12 12 11 10 10 8 6 6 7 10 12
63 62 61 64 60 55 47 50 49 39 28 34 36 32 32 31 30 25 30 33 30 22 15 16 18 14 11 12 15 14 11 9 10 13 13 12 12 11 9 8 9 10 9 8
70 63 60 67 57 64 48 40 57 48 42 45 39 36 31 29 30 28 30 31 27 23 21 20 20 19 17 12 10 13 14 12 11 12 14 14 13 13 11 9 9 9 9 8
46 67 59 75 75 62 61 52 51 44 42 37 34 26 26 25 30 35 31 30 25 22 25 22 21 22 23 19 17 18 17 15 13 12 13 16 15 14 13 13 12 12 10 8
Wind_Direction
233 245 234 250 254 257 249 252 251 242 255 293 292 293 284 291 298 314 313 287 293 289 310 314 309 305 313 323 321 323 326 326 326 331 329 331 329 333 326 337 341 343 343 332
237 230 241 247 246 240 236 240 252 276 232 238 282 283 279 284 288 297 283 324 322 322 313 307 299 305 316 321 319 328 324 325 328 332 329 334 333 324 328 333 333 346 343 329
241 240 246 244 240 244 246 249 251 272 247 220 234 247 257 270 275 283 310 310 332 336 317 301 303 308 313 316 319 327 323 325 328 330 331 334 333 335 336 332 339 354 352 347
241 241 234 232 234 239 243 247 257 263 241 247 255 270 268 285 298 288 315 314 313 328 318 300 312 310 314 312 317 323 323 327 327 330 333 332 339 336 341 340 353 358 349 355
243 242 230 227 235 241 247 242 250 239 274 281 274 278 301 268 271 294 300 301 309 324 301 312 311 313 317 318 321 323 328 330 329 329 336 329 341 339 357 356 349 355 358 1
228 221 222 227 232 235 234 237 213 239 261 258 274 286 303 283 293 317 319 316 315 316 318 321 317 324 317 322 324 330 334 333 329 335 338 336 354 10 2 354 352 349 6 16
222 220 216 217 217 220 189 237 214 222 239 265 285 271 296 257 315 311 315 322 315 318 322 322 319 320 320 331 328 334 338 336 329 336 341 343 350 350 348 355 358 24 26 36
228 221 220 216 222 210 200 222 234 227 245 295 203 304 318 305 300 302 314 335 324 309 308 313 316 321 315 331 339 342 345 333 326 341 348 353 355 353 359 2 13 24 36 47
224 221 223 226 227 207 195 218 234 242 249 238 221 270 285 294 285 304 324 332 335 333 323 319 321 321 313 332 351 1 354 342 349 2 358 355 348 356 12 7 24 37 45 59
229 230 224 229 215 220 206 214 230 236 236 244 237 225 237 257 285 303 329 328 341 331 328 325 323 306 325 344 16 12 7 349 357 344 348 356 359 19 15 19 32 45 46 79
221 229 220 213 216 215 201 209 231 240 243 245 253 247 245 254 270 302 319 330 329 312 325 331 305 311 335 16 27 17 9 7 19 13 4 15 24 29 32 34 41 54 61 93
220 222 221 221 221 219 216 212 225 233 235 235 238 253 264 271 288 299 318 317 326 305 328 344 308 329 350 36 34 28 27 31 42 40 30 40 39 38 40 40 31 59 68 81
209 215 217 218 202 210 222 223 227 240 233 232 239 232 256 264 277 298 303 322 319 281 321 356 317 329 7 58 46 47 46 44 48 41 43 54 49 47 53 48 57 73 81 80
214 210 215 218 221 215 221 223 221 233 233 232 239 226 237 255 275 296 295 312 322 298 306 360 322 334 126 84 63 59 57 57 40 38 45 52 55 55 60 54 48 69 86 91
209 209 210 216 209 209 226 232 229 227 238 238 245 245 242 259 277 285 291 306 325 354 326 293 160 332 171 91 74 71 61 57 35 23 41 51 68 70 62 55 51 59 73 90
194 210 202 210 208 206 221 227 233 231 241 245 236 231 237 251 265 279 291 310 315 334 319 244 152 328 149 131 91 75 65 49 44 39 63 62 74 69 74 69 66 69 82 103
191 193 197 208 209 204 214 225 230 232 236 242 238 233 222 223 246 269 282 304 313 237 278 237 165 201 57 140 118 89 74 63 56 54 70 72 70 71 85 83 81 80 80 79
188 195 193 208 202 206 213 223 222 231 236 243 240 227 229 225 230 257 277 290 303 262 252 202 188 200 217 125 126 116 99 85 72 63 68 77 77 90 92 88 86 85 83 81
187 194 191 205 206 207 207 210 225 228 228 236 239 235 231 221 221 249 270 278 290 269 234 209 187 199 219 182 152 142 124 114 94 84 85 89 94 96 97 95 90 82 80 84
191 196 196 199 204 210 209 196 210 224 233 241 241 240 234 237 233 251 272 285 286 279 231 205 205 192 225 264 248 182 152 137 128 115 116 109 104 101 97 94 95 97 93 87
196 196 195 199 200 205 207 202 193 222 235 235 239 234 227 238 247 245 253 261 276 283 221 203 216 211 216 252 251 228 186 163 154 143 140 139 126 112 96 93 96 101 102 102
186 196 193 198 200 203 206 207 207 216 230 233 238 241 237 233 240 243 242 262 272 275 239 204 207 223 209 238 243 221 211 187 170 168 160 153 153 155 144 122 96 95 102 100
190 191 192 190 201 197 199 190 197 212 225 234 237 238 242 235 237 227 242 258 266 269 272 207 206 219 228 234 233 224 206 205 185 174 179 172 163 158 156 143 126 121 117 113
190 189 199 195 192 196 193 199 200 204 212 227 230 234 237 232 233 221 239 250 260 261 249 229 207 213 216 229 232 220 212 207 198 186 183 183 172 167 164 158 147 138 131 123
186 189 189 190 187 186 199 187 198 204 208 223 228 226 229 223 223 219 235 251 256 254 246 244 218 214 219 221 228 215 217 214 209 198 196 196 191 191 184 182 176 168 159 146
180 188 192 200 193 189 196 201 197 199 200 219 223 213 229 228 224 225 232 244 248 238 243 243 227 214 221 227 225 229 224 221 217 216 211 215 207 209 208 208 209 211 209 213
Height
5776 5778 5782 5791 5794 5796 5797 5797 5798 5801 5802 5804 5804 5807 5805 5805 5803 5801 5799 5798 5795 5792 5789 5786 5785 5781 5778 5774 5770 5765 5761 5756 5751 5746 5742 5737 5732 5728 5723 5718 5713 5709 5704 5698
5768 5768 5780 5785 5786 5788 5789 5791 5792 5795 5796 5800 5800 5801 5802 5801 5800 5799 5797 5794 5791 5790 5787 5784 5780 5777 5774 5771 5766 5762 5758 5753 5748 5743 5739 5734 5728 5724 5720 5715 5712 5707 5702 5697
5759 5768 5773 5775 5778 5780 5783 5785 5789 5791 5793 5795 5796 5796 5799 5799 5797 5794 5791 5789 5786 5786 5784 5781 5775 5772 5770 5767 5763 5759 5754 5750 5745 5741 5737 5732 5727 5722 5718 5714 5710 5705 5701 5696
5748 5758 5760 5765 5768 5772 5775 5783 5785 5786 5787 5788 5790 5789 5790 5792 5790 5789 5786 5783 5781 5782 5780 5775 5771 5769 5767 5763 5760 5756 5751 5747 5742 5740 5736 5730 5725 5720 5716 5712 5708 5705 5699 5694
5744 5749 5751 5753 5761 5766 5773 5777 5779 5780 5781 5783 5784 5785 5788 5787 5787 5784 5781 5779 5777 5778 5776 5771 5769 5766 5763 5760 5756 5753 5748 5744 5741 5738 5734 5730 5725 5719 5715 5711 5708 5703 5698 5693
5732 5737 5739 5748 5757 5761 5768 5771 5773 5777 5779 5777 5781 5781 5785 5782 5781 5777 5778 5776 5774 5773 5770 5766 5765 5763 5759 5758 5753 5750 5745 5742 5739 5737 5733 5729 5724 5719 5716 5711 5706 5702 5697 5694
5726 5730 5736 5741 5746 5753 5758 5766 5768 5770 5771 5773 5779 5777 5778 5778 5777 5777 5776 5775 5771 5768 5766 5764 5763 5760 5757 5755 5751 5747 5743 5740 5738 5736 5732 5729 5725 5720 5716 5711 5705 5701 5698 5695
5718 5723 5727 5734 5738 5745 5750 5759 5761 5762 5765 5773 5773 5772 5773 5773 5775 5776 5773 5772 5768 5766 5764 5761 5760 5757 5755 5752 5749 5746 5742 5738 5736 5734 5732 5728 5725 5721 5716 5711 5706 5703 5699 5697
5711 5718 5725 5730 5737 5740 5746 5748 5759 5761 5763 5766 5767 5770 5770 5769 5772 5771 5770 5771 5765 5762 5760 5758 5757 5754 5753 5750 5747 5744 5741 5738 5735 5734 5732 5729 5725 5722 5717 5711 5707 5704 5701 5699
5707 5711 5720 5726 5731 5734 5737 5748 5751 5753 5757 5758 5762 5765 5767 5765 5766 5766 5766 5767 5762 5760 5758 5757 5755 5753 5751 5749 5746 5743 5741 5738 5736 5733 5731 5729 5726 5723 5719 5713 5709 5706 5704 5702
5699 5703 5714 5718 5718 5726 5732 5739 5744 5751 5753 5755 5760 5762 5764 5762 5763 5764 5763 5763 5761 5759 5757 5755 5753 5752 5750 5748 5745 5743 5740 5738 5736 5733 5731 5730 5728 5725 5721 5715 5713 5710 5707 5705
5687 5695 5701 5707 5718 5724 5728 5734 5738 5741 5747 5751 5754 5757 5757 5759 5759 5759 5761 5761 5757 5756 5755 5753 5753 5751 5750 5747 5745 5743 5741 5739 5737 5734 5732 5731 5730 5728 5724 5719 5716 5714 5712 5710
5678 5681 5692 5703 5709 5718 5720 5726 5732 5735 5743 5745 5750 5754 5754 5756 5755 5758 5759 5759 5754 5754 5754 5752 5752 5751 5749 5747 5746 5744 5742 5740 5738 5737 5735 5733 5731 5730 5726 5723 5720 5719 5718 5717
5666 5675 5680 5689 5700 5710 5712 5720 5727 5730 5734 5741 5745 5752 5750 5752 5751 5754 5754 5756 5754 5752 5752 5751 5751 5750 5749 5748 5746 5745 5743 5742 5740 5739 5738 5735 5734 5732 5730 5727 5725 5724 5723 5722
5654 5663 5675 5687 5696 5705 5709 5715 5720 5725 5729 5733 5742 5746 5745 5747 5749 5748 5750 5752 5753 5751 5750 5749 5750 5750 5749 5748 5747 5746 5744 5743 5742 5741 5739 5738 5737 5736 5734 5731 5730 5729 5727 5727
5639 5653 5668 5677 5688 5695 5702 5707 5713 5720 5724 5729 5735 5740 5742 5743 5744 5744 5746 5750 5751 5750 5750 5748 5748 5749 5748 5748 5747 5747 5745 5744 5744 5742 5741 5740 5739 5739 5737 5736 5735 5734 5733 5733
5629 5644 5657 5665 5681 5689 5690 5693 5705 5715 5720 5723 5728 5735 5739 5741 5741 5740 5741 5745 5748 5749 5749 5747 5747 5748 5748 5747 5747 5747 5747 5746 5745 5744 5744 5743 5742 5742 5740 5740 5740 5740 5739 5739
5623 5634 5648 5658 5673 5673 5683 5689 5698 5706 5712 5718 5722 5729 5733 5737 5738 5738 5738 5741 5745 5746 5746 5745 5745 5747 5748 5747 5747 5747 5748 5747 5747 5747 5746 5746 5745 5745 5744 5744 5744 5744 5746 5745
5618 5624 5637 5646 5656 5667 5677 5687 5691 5697 5704 5710 5717 5722 5727 5731 5733 5733 5735 5738 5741 5745 5745 5743 5744 5746 5748 5748 5747 5748 5748 5748 5748 5749 5749 5749 5749 5749 5749 5749 5749 5749 5750 5751
5615 5621 5629 5639 5649 5654 5672 5682 5690 5696 5698 5704 5711 5718 5722 5724 5728 5730 5732 5734 5738 5740 5742 5742 5742 5743 5747 5748 5748 5747 5748 5748 5749 5750 5751 5752 5752 5752 5753 5753 5753 5754 5755 5756
5606 5613 5620 5631 5642 5654 5668 5678 5686 5687 5691 5699 5705 5711 5716 5719 5724 5728 5730 5730 5733 5736 5738 5740 5741 5741 5744 5746 5747 5747 5748 5748 5749 5750 5752 5754 5755 5756 5756 5757 5758 5758 5759 5760
5588 5603 5617 5628 5638 5653 5667 5675 5677 5685 5683 5691 5698 5702 5709 5716 5718 5722 5723 5726 5729 5735 5736 5739 5739 5738 5741 5743 5745 5746 5747 5748 5749 5751 5752 5754 5756 5758 5759 5760 5761 5761 5762 5763
5581 5589 5602 5615 5629 5643 5646 5653 5665 5672 5680 5684 5690 5696 5702 5709 5712 5716 5716 5720 5724 5730 5733 5735 5736 5735 5737 5740 5742 5744 5746 5746 5747 5750 5752 5753 5755 5758 5760 5761 5762 5764 5765 5766
5564 5582 5594 5607 5616 5628 5637 5644 5651 5656 5669 5675 5681 5689 5694 5702 5706 5710 5711 5714 5719 5724 5728 5731 5733 5734 5735 5736 5738 5741 5744 5745 5746 5748 5750 5752 5755 5757 5759 5761 5763 5765 5766 5767
5555 5572 5585 5599 5608 5616 5623 5624 5636 5649 5658 5663 5673 5681 5687 5695 5701 5704 5705 5709 5715 5718 5721 5725 5729 5731 5732 5734 5735 5737 5741 5743 5745 5746 5748 5751 5753 5755 5757 5760 5762 5764 5766 5767
5548 5556 5573 5584 5594 5604 5612 5618 5629 5638 5649 5658 5666 5673 5682 5688 5693 5697 5700 5705 5710 5714 5715 5718 5723 5726 5727 5730 5732 5734 5736 5740 5742 5745 5746 5748 5751 5753 5755 5758 5760 5762 5764 5765